Flag for Austria Weather past 2 weeks in Traun, Upper Austria, Austria

Now
82 °F

Passing clouds.


Feels Like: 83 °F
Forecast: 60 / 87 °F
Wind: 6 mph from Southeast

Location: Linz / Hoersching-Flughafen

Current Time: Jul 2, 2015 at 8:40:47 PM

Latest Report: Jul 2, 2015 at 7:50 PM


Visibility: N/A

Pressure: 30.18 "Hg

Humidity: 48%

Dew point: 61 °F

Location of TraunLocation

Historic Weather in Traun — Graph

°F

Traun temperature yesterday

Maximum temperature yesterday: 84 °F (at 3:50 PM)
Minimum temperature yesterday: 59 °F (at 3:50 AM)
Average temperature yesterday: 72 °F

Past Weeks' High & Low Weather Summary

 TemperatureHumidityPressure
High84 °F (Jul 1, 3:50 PM)100% (Jun 18, 11:20 PM)30.24 "Hg (Jun 18, 11:20 PM)
Low46 °F (Jun 25, 4:50 AM)31% (Jun 25, 2:20 PM)29.71 "Hg (Jun 23, 1:20 AM)
Average62 °F72%30.09 "Hg
* Reported Jun 17 7:20 PM — Jul 2 7:20 PM, Traun, Weather by CustomWeather, © 2015

Note: Actual official high and low records may vary slightly from our data, if they occured in-between our weather recording intervals... More about our weather records

Advertising

Traun weather history for previous 24 hours

 ConditionsComfort  
Time TempWeatherWind HumidityBarometerVisibility
7:20 PM
Thu, Jul 2
82 °FPassing clouds.9 mph45%30.18 "HgN/A
6:50 PM82 °FPassing clouds.7 mph48%30.18 "HgN/A
6:20 PM84 °FPassing clouds.8 mph43%30.18 "HgN/A
5:50 PM84 °FPassing clouds.8 mph43%30.18 "HgN/A
5:20 PM84 °FPassing clouds.8 mph43%30.18 "HgN/A
4:50 PM84 °FPassing clouds.6 mph43%30.18 "HgN/A
4:20 PM84 °FPassing clouds.8 mph43%30.18 "HgN/A
3:50 PM84 °FPassing clouds.9 mph43%30.18 "HgN/A
3:20 PM84 °FPassing clouds.8 mph43%30.18 "HgN/A
2:50 PM84 °FPassing clouds.8 mph43%30.18 "HgN/A
2:20 PM82 °FPassing clouds.8 mph45%30.18 "HgN/A
1:50 PM82 °FPassing clouds.10 mph48%30.21 "HgN/A
1:20 PM82 °FPassing clouds.9 mph45%30.21 "HgN/A
12:50 PM81 °FPassing clouds.10 mph48%30.21 "HgN/A
12:20 PM81 °FPassing clouds.10 mph48%30.21 "HgN/A
11:50 AM79 °FPassing clouds.8 mph51%30.21 "HgN/A
11:20 AM79 °FPassing clouds.7 mph51%30.21 "HgN/A
10:50 AM77 °FPassing clouds.7 mph54%30.21 "HgN/A
10:20 AM77 °FPassing clouds.7 mph51%30.21 "HgN/A
9:50 AM75 °FPassing clouds.5 mph54%30.21 "HgN/A
9:20 AM73 °FSunny.3 mph57%30.21 "Hg10 mi
8:50 AM73 °FPassing clouds.3 mph61%30.21 "HgN/A
8:20 AM72 °FPassing clouds.3 mph61%30.21 "HgN/A
7:50 AM70 °FSunny.5 mph64%30.21 "Hg10 mi
7:20 AM70 °FSunny.1 mph69%30.21 "Hg10 mi
6:50 AM66 °FSunny.2 mph78%30.21 "Hg10 mi
6:20 AM64 °FSunny.2 mph78%30.21 "Hg10 mi
5:50 AM63 °FClear.1 mph77%30.18 "Hg10 mi
5:20 AM61 °FClear.2 mph83%30.18 "Hg10 mi
4:50 AM61 °FClear.1 mph83%30.18 "Hg10 mi
4:20 AM63 °FClear.1 mph83%30.18 "Hg10 mi
3:50 AM64 °FClear.3 mph78%30.18 "Hg10 mi
3:20 AM64 °FMild.2 mph78%30.18 "HgN/A
2:50 AM63 °FClear.2 mph88%30.18 "Hg10 mi
2:20 AM66 °FClear.1 mph73%30.15 "Hg10 mi
1:50 AM64 °FClear.1 mph78%30.15 "Hg10 mi
1:20 AM66 °FClear.1 mph73%30.15 "Hg10 mi
12:50 AM66 °FClear.1 mph73%30.15 "Hg10 mi
12:20 AM68 °FClear.3 mph73%30.15 "Hg10 mi
11:50 PM
Wed, Jul 1
70 °FClear.5 mph69%30.15 "Hg10 mi
10:50 PM72 °FClear.6 mph65%30.15 "Hg10 mi
10:20 PM70 °FClear.3 mph69%30.15 "Hg10 mi
9:50 PM73 °FSunny.6 mph57%30.15 "Hg10 mi
9:20 PM73 °FSunny.6 mph57%30.12 "Hg10 mi
8:50 PM77 °FSunny.5 mph51%30.12 "Hg10 mi
8:20 PM79 °FSunny.5 mph48%30.12 "Hg10 mi
Weather by CustomWeather, © 2015

See weather overviewHow to use our weather pages